Meadville, PA

11:36 AM EST on January 19, 2017 (GMT -0500)
Port Meadville

Weather History for KGKJ - October, 2013

Change the Weather History Date:

Wednesday, October 16, 2013

  Actual Average Record
Temperature  
Mean Temperature 58 °F -  
Max Temperature 63 °F 63 °F 81 °F (1956)
Min Temperature 51 °F 39 °F 31 °F (1963)
Degree Days  
Heating Degree Days 8    
Growing Degree Days 8 (Base 50)    
Moisture  
Dew Point 56 °F    
Average Humidity 91    
Maximum Humidity 100    
Minimum Humidity 75    
Precipitation  
Precipitation 1.47 in - - ()
Sea Level Pressure  
Sea Level Pressure 29.91 in    
Wind  
Wind Speed 5 mph (SSW)    
Max Wind Speed 12 mph    
Max Gust Speed 20 mph    
Visibility 6 miles    
Events Fog , Rain    
Averages and records for this station are not official NWS values.
T = Trace of Precipitation, MM = Missing Value Source: NWS Daily Summary

Daily Weather History Graph

Daily Weather History Graph

Search for Another Location

Airport or City:

Trip Planner

Search our weather history database for the weather conditions in past years. The results will help you decide how hot, cold, wet, or windy it might be!

Date:

Astronomy

Oct. 16, 2013 Rise Set
Actual Time 7:34 AM EDT 6:37 PM EDT
Civil Twilight 7:06 AM EDT 7:05 PM EDT
Nautical Twilight 6:34 AM EDT 7:37 PM EDT
Astronomical Twilight 6:01 AM EDT 8:09 PM EDT
Moon 5:17 PM EDT (10/16) 4:58 AM EDT (10/16)
Length of Visible Light 11h 59m
Length of Day
11h 03m
Waxing Gibbous, 94% of the Moon is Illuminated
Oct 16
Waxing Gibbous
Oct 18
Full
Oct 26
Last Quarter
Nov 3
New
Nov 10
First Quarter

Hourly Weather History & Observations

Time (EDT) Temp. Dew Point Humidity Pressure Visibility Wind Dir Wind Speed Gust Speed Precip Events Conditions
12:53 AM 62.1 °F 54.0 °F 75% 29.95 in 10.0 mi Variable 5.8 mph - N/A   Mostly Cloudy
1:53 AM 61.0 °F 54.0 °F 78% 29.95 in 10.0 mi South 4.6 mph - N/A   Mostly Cloudy
2:53 AM 61.0 °F 54.0 °F 78% 29.94 in 10.0 mi Variable 3.5 mph - N/A   Overcast
3:07 AM 60.8 °F 53.6 °F 77% 29.95 in 10.0 mi South 4.6 mph - N/A   Overcast
3:24 AM 60.8 °F 53.6 °F 77% 29.95 in 10.0 mi Variable 4.6 mph - 0.00 in Rain Light Rain
3:36 AM 59.0 °F 55.4 °F 88% 29.94 in 8.0 mi South 4.6 mph - 0.01 in Rain Light Rain
3:53 AM 59.0 °F 55.0 °F 87% 29.93 in 10.0 mi Variable 5.8 mph - 0.02 in Rain Light Rain
4:21 AM 57.2 °F 55.4 °F 94% 29.95 in 7.0 mi South 5.8 mph - 0.04 in Rain Light Rain
4:25 AM 57.2 °F 55.4 °F 94% 29.95 in 2.0 mi Variable 3.5 mph - 0.13 in Rain Rain
4:32 AM 57.2 °F 55.4 °F 94% 29.95 in 1.0 mi SSW 8.1 mph - 0.23 in Rain Heavy Rain
4:48 AM 57.2 °F 55.4 °F 94% 29.94 in 3.0 mi Variable 3.5 mph - 0.29 in Rain Light Rain
4:49 AM 57.9 °F 55.9 °F 93% 29.93 in 3.0 mi Calm Calm - 0.29 in Rain Light Rain
4:57 AM 57.2 °F 57.2 °F 100% 29.93 in 6.0 mi Variable 4.6 mph - 0.00 in Rain Light Rain
5:04 AM 57.2 °F 57.2 °F 100% 29.93 in 7.0 mi South 3.5 mph - 0.00 in Rain Light Rain
5:27 AM 59.0 °F 57.2 °F 94% 29.93 in 5.0 mi Variable 3.5 mph - 0.01 in Rain Light Rain
5:53 AM 59.0 °F 57.0 °F 93% 29.92 in 7.0 mi Variable 4.6 mph - 0.01 in   Overcast
6:11 AM 59.0 °F 57.2 °F 94% 29.93 in 8.0 mi Variable 5.8 mph - N/A   Overcast
6:53 AM 57.9 °F 55.9 °F 93% 29.92 in 7.0 mi Variable 3.5 mph - 0.00 in Rain Light Rain
7:08 AM 57.2 °F 55.4 °F 94% 29.93 in 6.0 mi Variable 5.8 mph - 0.01 in Rain Light Rain
7:53 AM 57.9 °F 55.9 °F 93% 29.91 in 4.0 mi Calm Calm - 0.03 in Rain Light Rain
8:03 AM 57.2 °F 55.4 °F 94% 29.93 in 2.0 mi South 5.8 mph - 0.02 in Rain Rain
8:33 AM 57.2 °F 55.4 °F 94% 29.93 in 1.8 mi South 4.6 mph - 0.11 in Rain Rain
8:43 AM 57.2 °F 55.4 °F 94% 29.93 in 2.0 mi South 5.8 mph - 0.13 in Rain Rain
8:53 AM 57.9 °F 55.9 °F 93% 29.93 in 1.8 mi South 4.6 mph - 0.14 in Rain Rain
9:44 AM 57.2 °F 57.2 °F 100% 29.94 in 1.2 mi South 5.8 mph - 0.27 in Rain Heavy Rain
9:53 AM 57.9 °F 57.0 °F 97% 29.93 in 2.5 mi Variable 5.8 mph - 0.28 in Rain Rain
10:05 AM 57.2 °F 57.2 °F 100% 29.94 in 3.0 mi South 5.8 mph - 0.02 in Rain Light Rain
10:07 AM 57.2 °F 57.2 °F 100% 29.93 in 1.8 mi South 4.6 mph - 0.06 in Rain Heavy Rain
10:14 AM 57.2 °F 57.2 °F 100% 29.93 in 0.5 mi Variable 5.8 mph - 0.17 in Fog , Rain Heavy Rain
10:22 AM 57.2 °F 57.2 °F 100% 29.93 in 1.0 mi Variable 6.9 mph - 0.21 in Rain Rain
10:27 AM 59.0 °F 57.2 °F 94% 29.93 in 3.0 mi South 8.1 mph - 0.21 in Rain Light Rain
10:53 AM 59.0 °F 57.0 °F 93% 29.91 in 6.0 mi South 8.1 mph - 0.23 in Rain Light Rain
11:53 AM 59.0 °F 57.0 °F 93% 29.91 in 10.0 mi SW 4.6 mph - 0.04 in   Overcast
12:06 PM 59.0 °F 57.2 °F 94% 29.91 in 10.0 mi South 6.9 mph - 0.00 in   Overcast
12:30 PM 60.8 °F 57.2 °F 88% 29.91 in 10.0 mi South 9.2 mph - 0.01 in   Overcast
12:53 PM 60.1 °F 57.9 °F 93% 29.89 in 10.0 mi South 8.1 mph 16.1 mph 0.01 in Rain Light Rain
1:53 PM 61.0 °F 57.9 °F 90% 29.87 in 10.0 mi South 9.2 mph - 0.00 in   Overcast
2:53 PM 63.0 °F 59.0 °F 87% 29.84 in 10.0 mi South 8.1 mph - N/A   Overcast
3:53 PM 63.0 °F 59.0 °F 87% 29.83 in 10.0 mi South 10.4 mph 19.6 mph N/A   Overcast
4:53 PM 62.1 °F 59.0 °F 90% 29.81 in 10.0 mi SSW 11.5 mph 19.6 mph N/A   Overcast
5:36 PM 62.6 °F 59.0 °F 88% 29.82 in 5.0 mi SSW 8.1 mph 16.1 mph 0.01 in Rain Light Rain
5:53 PM 62.1 °F 59.0 °F 90% 29.82 in 3.0 mi SW 5.8 mph - 0.03 in Rain Rain
5:57 PM 62.6 °F 59.0 °F 88% 29.83 in 2.5 mi West 10.4 mph - 0.04 in Rain Heavy Rain
6:03 PM 60.8 °F 57.2 °F 88% 29.83 in 1.2 mi WNW 4.6 mph - 0.18 in Rain Heavy Rain
6:10 PM 59.0 °F 57.2 °F 94% 29.84 in 1.2 mi NW 10.4 mph - 0.26 in Rain Heavy Rain
6:29 PM 57.2 °F 57.2 °F 100% 29.84 in 3.0 mi West 3.5 mph - 0.39 in Rain Light Rain
6:53 PM 57.9 °F 57.0 °F 97% 29.85 in 8.0 mi West 6.9 mph - 0.39 in   Overcast
7:27 PM 57.2 °F 55.4 °F 94% 29.86 in 7.0 mi WNW 4.6 mph - N/A   Overcast
7:53 PM 57.0 °F 55.0 °F 93% 29.87 in 7.0 mi Calm Calm - N/A   Mostly Cloudy
8:05 PM 57.2 °F 55.4 °F 94% 29.87 in 7.0 mi Calm Calm - N/A   Mostly Cloudy
8:21 PM 57.2 °F 53.6 °F 88% 29.88 in 9.0 mi West 6.9 mph - N/A   Mostly Cloudy
8:53 PM 55.9 °F 52.0 °F 87% 29.89 in 10.0 mi West 4.6 mph - N/A   Overcast
9:44 PM 53.6 °F 50.0 °F 88% 29.90 in 10.0 mi Calm Calm - N/A   Mostly Cloudy
9:53 PM 53.1 °F 50.0 °F 89% 29.90 in 10.0 mi Calm Calm - N/A   Partly Cloudy
10:53 PM 52.0 °F 48.0 °F 86% 29.91 in 10.0 mi WSW 5.8 mph - N/A   Clear
11:53 PM 51.1 °F 48.0 °F 89% 29.92 in 10.0 mi SW 3.5 mph - N/A   Clear